{"data":{"norad_id":69320,"epoch":"2026-09-20T04:59:38.208768Z","epoch_age_seconds":55280,"freshness":"FRESH","line1":"1 69320U 26120A   26263.20808112  .00007108  00000+0  34886-3 0  9999","line2":"2 69320  55.0116 326.4644 0010372 166.5807 193.5490 15.19123340 17227","mean_motion":15.1912334,"eccentricity":0.0010372,"inclination_deg":55.0116,"raan_deg":326.4644,"arg_perigee_deg":166.5807,"mean_anomaly_deg":193.549,"bstar":0.00034886,"rev_number":1722,"period_min":94.79151311045,"perigee_km":501.34596769343,"apogee_km":515.63158420306,"semimajor_km":6886.6257759482,"source":"CELESTRAK","updated_at":"2026-09-20T09:00:24.817388Z"}}